When you browse on this site, cookies collect data to enhance your experience and personalize the content and advertising you see.
Visit our Privacy Policy to learn more. By continuing to use the site, you agree to this use of cookies and data.
  • In United Kingdom
  • List of Countries
  • For 7 days
  • Water Temperature
  • Weather Map
  • Weather Widgets
  • user-avatar
    Login

    Hourly Weather Budapest

    Today, 3 June, Wednesday

    Time Temperature Precipitation Wind Pressure Humidity
    00:00 +13°C° 0 mm 2 mps 748 mmHg 76%
    01:00 +13°C° 0 mm 2 mps 748 mmHg 79%
    02:00 +12°C° 0 mm 2 mps 747 mmHg 81%
    03:00 +11°C° 0 mm 3 mps 747 mmHg 82%
    04:00 +11°C° 0 mm 3 mps 746 mmHg 84%
    05:00 +12°C° 0 mm 3 mps 746 mmHg 81%
    06:00 +14°C° 0 mm 3 mps 746 mmHg 77%
    07:00 +16°C° 0 mm 3 mps 746 mmHg 71%
    08:00 +18°C° 0.1 mm 3 mps 746 mmHg 63%
    09:00 +19°C° 0.1 mm 3 mps 746 mmHg 56%
    10:00 +21°C° 0.1 mm 3 mps 745 mmHg 48%
    11:00 +21°C° 0.1 mm 4 mps 745 mmHg 47%
    12:00 +22°C° 0.1 mm 4 mps 745 mmHg 46%
    13:00 +22°C° 0.1 mm 4 mps 744 mmHg 46%
    14:00 +22°C° 0.1 mm 4 mps 744 mmHg 46%
    15:00 +22°C° 0.1 mm 3 mps 744 mmHg 47%
    16:00 +22°C° 0.1 mm 3 mps 743 mmHg 48%
    17:00 +21°C° 0 mm 3 mps 743 mmHg 53%
    18:00 +20°C° 0 mm 2 mps 743 mmHg 58%
    19:00 +20°C° 0 mm 1 mps 743 mmHg 64%
    20:00 +18°C° 0 mm 2 mps 743 mmHg 67%
    21:00 +17°C° 0 mm 2 mps 744 mmHg 70%
    22:00 +16°C° 0 mm 2 mps 744 mmHg 74%
    23:00 +16°C° 0 mm 2 mps 744 mmHg 77%

    Tomorrow, 4 June, Thursday

    Time Temperature Precipitation Wind Pressure Humidity
    00:00 +15°C° 0 mm 1 mps 743 mmHg 79%
    01:00 +15°C° 0 mm 1 mps 743 mmHg 82%
    02:00 +14°C° 0.1 mm 1 mps 743 mmHg 84%
    03:00 +14°C° 0.1 mm 2 mps 743 mmHg 86%
    04:00 +13°C° 0.1 mm 2 mps 742 mmHg 88%
    05:00 +13°C° 0.3 mm 3 mps 742 mmHg 86%
    06:00 +14°C° 0.3 mm 3 mps 742 mmHg 84%
    07:00 +17°C° 0.3 mm 4 mps 742 mmHg 82%
    08:00 +18°C° 0.1 mm 4 mps 742 mmHg 78%
    09:00 +19°C° 0.1 mm 4 mps 742 mmHg 73%
    10:00 +21°C° 0.1 mm 4 mps 742 mmHg 69%
    11:00 +22°C° 0.1 mm 5 mps 742 mmHg 65%
    12:00 +23°C° 0.1 mm 6 mps 742 mmHg 60%
    13:00 +24°C° 0.1 mm 7 mps 741 mmHg 56%
    14:00 +26°C° 0.1 mm 7 mps 741 mmHg 54%
    15:00 +26°C° 0.1 mm 7 mps 741 mmHg 51%
    16:00 +27°C° 0.1 mm 7 mps 740 mmHg 49%
    17:00 +24°C° 0 mm 6 mps 740 mmHg 54%
    18:00 +23°C° 0 mm 5 mps 740 mmHg 59%
    19:00 +22°C° 0 mm 5 mps 740 mmHg 64%
    20:00 +21°C° 0 mm 5 mps 740 mmHg 64%
    21:00 +20°C° 0 mm 5 mps 740 mmHg 64%
    22:00 +19°C° 0 mm 5 mps 740 mmHg 64%
    23:00 +19°C° 0 mm 5 mps 740 mmHg 62%

    Day after tomorrow, 5 June, Friday

    Time Temperature Precipitation Wind Pressure Humidity
    00:00 +19°C° 0 mm 5 mps 740 mmHg 61%
    01:00 +19°C° 0 mm 6 mps 740 mmHg 60%
    02:00 +19°C° 0 mm 6 mps 740 mmHg 60%
    03:00 +17°C° 0 mm 5 mps 740 mmHg 60%
    04:00 +17°C° 0 mm 5 mps 740 mmHg 61%
    05:00 +19°C° 0.3 mm 6 mps 740 mmHg 64%
    06:00 +19°C° 0.3 mm 6 mps 740 mmHg 67%
    07:00 +20°C° 0.3 mm 6 mps 740 mmHg 70%
    08:00 +21°C° 0.2 mm 6 mps 740 mmHg 68%
    09:00 +22°C° 0.2 mm 7 mps 740 mmHg 65%
    10:00 +23°C° 0.2 mm 7 mps 740 mmHg 63%
    11:00 +22°C° 1.1 mm 6 mps 740 mmHg 68%
    12:00 +22°C° 1.1 mm 6 mps 740 mmHg 74%
    13:00 +21°C° 1.1 mm 5 mps 740 mmHg 80%
    14:00 +20°C° 1.5 mm 6 mps 740 mmHg 82%
    15:00 +19°C° 1.5 mm 6 mps 741 mmHg 85%
    16:00 +17°C° 1.5 mm 6 mps 741 mmHg 87%
    17:00 +17°C° 0.2 mm 6 mps 742 mmHg 87%
    18:00 +16°C° 0.2 mm 5 mps 742 mmHg 87%
    19:00 +15°C° 0.2 mm 5 mps 743 mmHg 88%
    20:00 +15°C° 0 mm 4 mps 743 mmHg 87%
    21:00 +14°C° 0 mm 3 mps 744 mmHg 86%
    22:00 +14°C° 0 mm 2 mps 744 mmHg 86%
    23:00 +14°C° 0 mm 2 mps 745 mmHg 87%

    6 June, Saturday

    Time Temperature Precipitation Wind Pressure Humidity
    00:00 +13°C° 0 mm 2 mps 745 mmHg 88%
    01:00 +13°C° 0 mm 2 mps 746 mmHg 89%
    02:00 +13°C° 0 mm 2 mps 746 mmHg 89%
    03:00 +12°C° 0 mm 2 mps 747 mmHg 89%
    04:00 +12°C° 0 mm 2 mps 747 mmHg 89%
    05:00 +14°C° 0 mm 2 mps 747 mmHg 84%
    06:00 +15°C° 0 mm 2 mps 748 mmHg 78%
    07:00 +17°C° 0 mm 2 mps 748 mmHg 72%
    08:00 +20°C° 0 mm 1 mps 749 mmHg 65%
    09:00 +21°C° 0 mm 1 mps 749 mmHg 58%
    10:00 +23°C° 0 mm 1 mps 749 mmHg 51%
    11:00 +24°C° 0 mm 1 mps 749 mmHg 49%
    12:00 +25°C° 0 mm 2 mps 749 mmHg 46%
    13:00 +26°C° 0 mm 2 mps 748 mmHg 43%
    14:00 +26°C° 0 mm 2 mps 748 mmHg 43%
    15:00 +26°C° 0 mm 2 mps 748 mmHg 44%
    16:00 +26°C° 0 mm 3 mps 747 mmHg 44%
    17:00 +25°C° 0 mm 3 mps 747 mmHg 49%
    18:00 +23°C° 0 mm 2 mps 747 mmHg 55%
    19:00 +21°C° 0 mm 2 mps 747 mmHg 61%
    20:00 +20°C° 0 mm 2 mps 748 mmHg 63%
    21:00 +19°C° 0 mm 2 mps 748 mmHg 66%
    22:00 +18°C° 0 mm 2 mps 748 mmHg 69%
    23:00 +18°C° 0 mm 1 mps 748 mmHg 71%

    7 June, Sunday

    Time Temperature Precipitation Wind Pressure Humidity
    00:00 +18°C° 0 mm 1 mps 748 mmHg 73%
    01:00 +16°C° 0 mm 1 mps 748 mmHg 75%
    02:00 +16°C° 0 mm 1 mps 748 mmHg 76%
    03:00 +16°C° 0 mm 1 mps 748 mmHg 78%
    04:00 +15°C° 0 mm 1 mps 748 mmHg 79%
    05:00 +18°C° 0 mm 1 mps 748 mmHg 75%
    06:00 +19°C° 0 mm 1 mps 748 mmHg 71%
    07:00 +20°C° 0 mm 2 mps 748 mmHg 67%
    08:00 +21°C° 0 mm 2 mps 748 mmHg 65%
    09:00 +23°C° 0 mm 2 mps 748 mmHg 62%
    10:00 +24°C° 0 mm 2 mps 748 mmHg 60%
    11:00 +25°C° 0.1 mm 2 mps 748 mmHg 56%
    12:00 +26°C° 0.1 mm 2 mps 748 mmHg 52%
    13:00 +27°C° 0.1 mm 2 mps 747 mmHg 48%
    14:00 +27°C° 0.3 mm 3 mps 747 mmHg 50%
    15:00 +27°C° 0.3 mm 3 mps 747 mmHg 52%
    16:00 +27°C° 0.3 mm 3 mps 746 mmHg 53%
    17:00 +26°C° 0.3 mm 3 mps 746 mmHg 60%
    18:00 +24°C° 0.3 mm 3 mps 746 mmHg 67%
    19:00 +23°C° 0.3 mm 2 mps 746 mmHg 74%
    20:00 +21°C° 0 mm 2 mps 747 mmHg 78%
    21:00 +20°C° 0 mm 2 mps 747 mmHg 81%
    22:00 +19°C° 0 mm 2 mps 748 mmHg 84%
    23:00 +18°C° 0 mm 2 mps 748 mmHg 87%

    8 June, Monday

    Time Temperature Precipitation Wind Pressure Humidity
    00:00 +17°C° 0 mm 2 mps 748 mmHg 90%
    01:00 +17°C° 0 mm 2 mps 748 mmHg 92%
    02:00 +16°C° 0 mm 2 mps 748 mmHg 92%
    03:00 +16°C° 0 mm 2 mps 748 mmHg 93%
    04:00 +16°C° 0 mm 3 mps 748 mmHg 93%
    05:00 +17°C° 0 mm 3 mps 748 mmHg 88%
    06:00 +18°C° 0 mm 3 mps 748 mmHg 83%
    07:00 +18°C° 0 mm 3 mps 749 mmHg 79%
    08:00 +20°C° 0 mm 3 mps 749 mmHg 74%
    09:00 +21°C° 0 mm 4 mps 749 mmHg 70%
    10:00 +22°C° 0 mm 4 mps 749 mmHg 65%
    11:00 +22°C° 0 mm 4 mps 749 mmHg 64%
    12:00 +22°C° 0 mm 4 mps 749 mmHg 63%
    13:00 +23°C° 0 mm 4 mps 749 mmHg 61%
    14:00 +22°C° 0 mm 4 mps 749 mmHg 62%
    15:00 +22°C° 0 mm 4 mps 749 mmHg 63%
    16:00 +22°C° 0 mm 5 mps 748 mmHg 64%
    17:00 +21°C° 0 mm 4 mps 749 mmHg 68%
    18:00 +20°C° 0 mm 4 mps 749 mmHg 72%
    19:00 +19°C° 0 mm 4 mps 749 mmHg 76%
    20:00 +18°C° 0 mm 3 mps 749 mmHg 79%
    21:00 +17°C° 0 mm 3 mps 750 mmHg 81%
    22:00 +16°C° 0 mm 3 mps 750 mmHg 83%
    23:00 +14°C° 0 mm 3 mps 750 mmHg 83%
    Show more